949  
ASUS45 KSLC 190210  
RWRUT  
 
UTAH REGIONAL WEATHER ROUNDUP  
NATIONAL WEATHER SERVICE SALT LAKE CITY UT  
800 PM MDT FRI SEP 18 2020  
 
UTZ001>011-023>025-190300-  
 
NORTHERN UTAH  
 
CITY SKY/WX TMP DP RH WIND PRES REMARKS
 
BRIGHAM CITY MOCLDY 74 39 28 CALM 29.96S  
HILL AFB MOCLDY 75 29 18 SE7 29.98F  
LOGAN MOCLDY 70 43 37 NW5 29.97F  
OGDEN MOCLDY 80 28 15 SE8 29.95F  
SALT LAKE CITY CLOUDY 80 33 18 SE6 29.94S  
TOOELE VALLEY MOCLDY 82 37 20 S9 29.95S  
WENDOVER MOCLDY 79 31 17 N15 29.92S  
HEBER CITY N/A 64 32 29 S3 30.07S  
WEST JORDAN N/A 77 37 23 S8 29.98S  
 

 
 
UTZ011>015-024>027-190300-  
 
CENTRAL/NORTHEAST UTAH  
 
CITY SKY/WX TMP DP RH WIND PRES REMARKS
 
PROVO AIRPORT MOCLDY 77 36 22 SE10 30.00S  
MOAB/CANYONLAN PTCLDY 78 21 12 E3 30.03S  
DELTA MOCLDY 79 23 12 S14 30.01S  
MANTI N/A 69 30 22 SE3 30.10S  
PRICE MOCLDY 74 24 15 NE8 30.14F  
RICHFIELD CLEAR 73 32 21 S6 30.07R  
ROOSEVELT CLOUDY 70 41 35 CALM 30.12F  
DUCHESNE CLEAR 73 23 15 SE7 30.14S  
VERNAL CLOUDY 68 40 35 W5 30.11S  
 

 
 
UTZ013>016-019>022-027-190300-  
 
SOUTHERN UTAH  
 
CITY SKY/WX TMP DP RH WIND PRES REMARKS
 
BRYCE CANYON PTCLDY 61 24 24 S6 30.29S  
CEDAR CITY PTCLDY 76 22 13 S8 30.10F  
MILFORD MOCLDY 76 27 16 S8 30.04S  
PANGUITCH CLEAR 72 23 16 S8 30.23S  
ST GEORGE MOCLDY 91 29 11 SW8 29.90R  
HANKSVILLE PTCLDY 82 23 11 S12 30.04S  
KANAB CLEAR 73 30 20 CALM 30.11R  
BLANDING N/A 75 24 14 CALM 30.26S  
 

 
 
REGIONAL REPORTS COLORADO/ARIZONA  
 
CITY SKY/WX TMP DP RH WIND PRES REMARKS
 
CRAIG, CO MOCLDY 63 36 36 CALM 30.19S  
GRAND JUNCTION CLOUDY 72 38 29 CALM 30.09F  
RIFLE, CO MOCLDY 71 27 19 SE5 30.15S  
MONTROSE, CO PTCLDY 70 37 29 S6 30.19S  
CORTEZ, CO CLEAR 63 37 38 CALM 30.21S  
COLORADO CITY N/A 84 30 14 W7 30.10R  
PAGE, AZ PTCLDY 82 26 13 CALM 30.02S  
GRAND CANYON PTCLDY 66 25 21 CALM 30.25S  
KINGMAN, AZ CLEAR 88 29 12 SW9 29.99R  
FLAGSTAFF, AZ PTCLDY 66 25 21 CALM 30.29S  
 

 
 
REGIONAL REPORTS NEVADA/IDAHO/WYOMING  
 
CITY SKY/WX TMP DP RH WIND PRES REMARKS
 
LAS VEGAS, NV NOT AVBL  
ELY, NY CLOUDY 74 25 16 S18G32 30.06S  
ELKO, NV MOCLDY 62 43 49 N17G28 30.07F  
POCATELLO, ID CLOUDY 74 36 25 W8 30.02R  
BURLEY, ID MOCLDY 65 48 54 W18G30 30.04R HAZE  
EVANSTON, WY MOCLDY 67 23 19 S8 30.20F  
ROCK SPRINGS, MOCLDY 69 24 18 NW3 30.21R  
 

 
 
 
CLICK HERE TO GO TO PREVIOUS BULLETINS.

The Nexlab UT Page Main Text Page